Home   Weather   Aylesbury   Past weeks

Flag for United Kingdom Past Weather in Aylesbury, England, United Kingdom — Yesterday and Last 2 Weeks

Now
50 °F

Fog.


Feels Like: 46 °F
Forecast: N/A
Wind: 10 mph from Southwest

Location: High Wicombe Hqstc

Current Time: Dec 9, 2016 at 11:31:23 pm

Latest Report: Dec 9, 2016 at 10:00 pm


Visibility: 2 mi

Pressure: 30.22 "Hg

Humidity: 97%

Dew Point: 49 °F

Location of AylesburyLocation

Past Weather in Aylesbury — Graph

°F

Aylesbury Temperature Yesterday

Maximum temperature yesterday: 52 °F (at 10:00 am)
Minimum temperature yesterday: 50 °F (at 6:00 am)
Average temperature yesterday: 51 °F

High & Low Weather Summary for the Past Weeks

 TemperatureHumidityPressure
High55 °F (Dec 9, 3:00 pm)100% (Nov 26, 3:00 am)30.60 "Hg (Nov 26, 3:00 am)
Low30 °F (Nov 29, 5:00 am)42% (Dec 1, 1:00 am)30.14 "Hg (Nov 26, 2:00 pm)
Average41 °F85%30.33 "Hg
* Reported Nov 24 10:00 pm — Dec 9 10:00 pm, Aylesbury, Weather by CustomWeather, © 2016

Note: Actual official high and low records may vary slightly from our data, if they occured in-between our weather recording intervals... More about our weather records

Advertising

Aylesbury Weather History for the Previous 24 Hours

Scroll right to see more
 ConditionsComfort  
Time TempWeatherWind HumidityBarometerVisibility
10:00 pm
Fri, Dec 9
50 °FFog.10 mph97%30.22 "Hg2 mi
9:00 pm50 °FFog.8 mph99%30.23 "Hg1 mi
8:00 pm49 °FFog.8 mph99%30.22 "Hg1 mi
7:00 pm49 °FFog.8 mph97%30.23 "Hg2 mi
6:00 pm49 °FFog.7 mph97%30.24 "Hg2 mi
5:00 pm51 °FFog.9 mph94%30.24 "Hg3 mi
4:00 pm53 °FSmoke.9 mph89%30.24 "Hg6 mi
3:00 pm55 °FCool.9 mph86%30.25 "Hg7 mi
2:00 pm54 °FSmoke.12 mph89%30.26 "Hg5 mi
1:00 pm54 °FSmoke.12 mph89%30.27 "Hg6 mi
12:00 pm53 °FSmoke.10 mph91%30.28 "Hg5 mi
11:00 am52 °FFog.12 mph95%30.29 "Hg4 mi
10:00 am52 °FFog.8 mph95%30.29 "Hg4 mi
9:00 am52 °FFog.9 mph95%30.28 "Hg4 mi
8:00 am52 °FFog.8 mph99%30.27 "Hg3 mi
7:00 am52 °FFog.8 mph100%30.28 "Hg3 mi
6:00 am52 °FCool.9 mph100%30.27 "Hg1 mi
4:00 am52 °FDrizzle. Overcast.6 mph100%30.29 "Hg0 mi
3:00 am52 °FDrizzle. Overcast.8 mph100%30.30 "Hg0 mi
2:00 am52 °FDuststorm.6 mph100%30.30 "Hg0 mi
1:00 am52 °FDuststorm.6 mph100%30.30 "Hg0 mi
12:00 am52 °FDuststorm.7 mph100%30.31 "Hg0 mi
Weather by CustomWeather, © 2016

See weather overviewHow to use our weather pages